Weather History for K1H2 - February, 2014

Change the Weather History Date:

Wednesday, February 19, 2014

  Actual Average (KMTO) Record (KMTO)
Temperature  
Mean Temperature 42 °F 33 °F  
Max Temperature 49 °F 41 °F 63 °F (1981)
Min Temperature 35 °F 25 °F -6 °F (2015)
Degree Days  
Heating Degree Days 23 32  
Month to date heating degree days 659  
Since 1 July heating degree days 3935  
Cooling Degree Days 0 0  
Month to date cooling degree days 0  
Year to date cooling degree days 0  
Moisture  
Dew Point 30 °F    
Average Humidity 64    
Maximum Humidity 78    
Minimum Humidity 44    
Precipitation  
Precipitation 0.00 in 0.06 in 0.81 in (2002)
Month to date precipitation 1.25  
Year to date precipitation 3.46  
Sea Level Pressure  
Sea Level Pressure 29.94 in    
Wind  
Wind Speed 8 mph (SW)    
Max Wind Speed 14 mph    
Max Gust Speed 20 mph    
Visibility 10 miles    
Events      
T = Trace of Precipitation, MM = Missing Value Source: NWS Daily Summary

Daily Weather History Graph

Daily Weather History Graph

Search for Another Location

Airport or City:

Trip Planner

Search our weather history database for the weather conditions in past years. The results will help you decide how hot, cold, wet, or windy it might be!

Date:

Astronomy

Feb. 19, 2014 Rise Set
Actual Time 6:40 AM CST 5:35 PM CST
Civil Twilight 6:13 AM CST 6:03 PM CST
Nautical Twilight 5:42 AM CST 6:34 PM CST
Astronomical Twilight 5:11 AM CST 7:05 PM CST
Moon 10:26 PM CST (2/19) 8:48 AM CST (2/19)
Length of Visible Light 11h 49m
Length of Day
10h 55m
Waning Gibbous, 79% of the Moon is Illuminated
Feb 19
Waning Gibbous
Feb 22
Last Quarter
Mar 1
New
Mar 8
First Quarter
Mar 16
Full

Hourly Weather History & Observations

Time (CST) Temp. Windchill Dew Point Humidity Pressure Visibility Wind Dir Wind Speed Gust Speed Precip Events Conditions
12:15 AM 43.5 °F 39.4 °F 36.3 °F 76% 29.75 in 10.0 mi SSW 6.9 mph - N/A   Clear
12:35 AM 42.6 °F 39.0 °F 36.3 °F 78% 29.75 in 10.0 mi SW 5.8 mph - N/A   Clear
12:55 AM 43.7 °F 38.1 °F 37.4 °F 78% 29.75 in 10.0 mi SW 10.4 mph - N/A   Clear
1:15 AM 43.7 °F 38.6 °F 36.7 °F 76% 29.75 in 10.0 mi WSW 9.2 mph - N/A   Clear
1:35 AM 43.7 °F 38.6 °F 36.5 °F 76% 29.76 in 10.0 mi West 9.2 mph - N/A   Clear
1:55 AM 44.8 °F 38.3 °F 34.0 °F 66% 29.77 in 10.0 mi West 13.8 mph 19.6 mph N/A   Clear
2:15 AM 43.2 °F 36.2 °F 32.2 °F 65% 29.77 in 10.0 mi West 13.8 mph - N/A   Clear
2:35 AM 41.9 °F 35.4 °F 31.3 °F 66% 29.78 in 10.0 mi WNW 11.5 mph 16.1 mph N/A   Clear
2:55 AM 41.2 °F 34.1 °F 30.2 °F 65% 29.79 in 10.0 mi WNW 12.7 mph - N/A   Clear
3:15 AM 40.3 °F 33.4 °F 29.3 °F 65% 29.80 in 10.0 mi WNW 11.5 mph - N/A   Clear
3:35 AM 39.9 °F 33.4 °F 28.4 °F 63% 29.80 in 10.0 mi WNW 10.4 mph - N/A   Clear
4:15 AM 39.6 °F 31.7 °F 28.4 °F 64% 29.84 in 10.0 mi WNW 13.8 mph - N/A   Clear
4:35 AM 38.3 °F 30.1 °F 28.4 °F 68% 29.85 in 10.0 mi WNW 13.8 mph - N/A   Clear
4:55 AM 37.9 °F 30.5 °F 28.6 °F 69% 29.86 in 10.0 mi WNW 11.5 mph - N/A   Clear
5:15 AM 37.2 °F 29.1 °F 28.8 °F 71% 29.88 in 10.0 mi West 12.7 mph - N/A   Clear
5:35 AM 37.4 °F 29.8 °F 28.9 °F 71% 29.89 in 10.0 mi WNW 11.5 mph - N/A   Clear
5:55 AM 37.2 °F 30.6 °F 29.1 °F 73% 29.89 in 10.0 mi WNW 9.2 mph - N/A   Clear
6:15 AM 36.3 °F 29.5 °F 29.1 °F 75% 29.90 in 10.0 mi WNW 9.2 mph - N/A   Clear
6:35 AM 36.0 °F 29.6 °F 29.3 °F 77% 29.91 in 10.0 mi West 8.1 mph - N/A   Clear
6:55 AM 35.6 °F 28.6 °F 29.1 °F 77% 29.93 in 10.0 mi West 9.2 mph - N/A   Clear
7:15 AM 36.7 °F 30.5 °F 29.5 °F 75% 29.94 in 10.0 mi West 8.1 mph - N/A   Clear
7:35 AM 37.6 °F 32.3 °F 29.8 °F 74% 29.96 in 10.0 mi West 6.9 mph - N/A   Clear
7:55 AM 38.7 °F 32.9 °F 30.2 °F 72% 29.97 in 10.0 mi West 8.1 mph - N/A   Clear
8:15 AM 39.2 °F 34.2 °F 30.6 °F 71% 29.98 in 10.0 mi West 6.9 mph - N/A   Clear
8:35 AM 39.6 °F 34.0 °F 30.9 °F 71% 29.99 in 10.0 mi West 8.1 mph - N/A   Clear
8:55 AM 40.1 °F 34.7 °F 30.6 °F 69% 29.99 in 10.0 mi West 8.1 mph - N/A   Clear
9:15 AM 41.0 °F 35.8 °F 30.6 °F 66% 30.00 in 10.0 mi West 8.1 mph - N/A   Clear
9:35 AM 41.7 °F 36.7 °F 30.4 °F 64% 30.01 in 10.0 mi West 8.1 mph - N/A   Clear
9:55 AM 42.3 °F 37.3 °F 30.0 °F 62% 30.02 in 10.0 mi West 8.1 mph - N/A   Clear
10:15 AM 43.0 °F 38.8 °F 29.7 °F 59% 30.04 in 10.0 mi West 6.9 mph - N/A   Clear
10:35 AM 44.4 °F 41.2 °F 29.3 °F 55% 30.04 in 10.0 mi WSW 5.8 mph - N/A   Clear
10:55 AM 44.6 °F 42.2 °F 27.5 °F 51% 30.03 in 10.0 mi West 4.6 mph - N/A   Clear
11:15 AM 45.9 °F 42.9 °F 31.1 °F 56% 30.03 in 10.0 mi SW 5.8 mph - N/A   Clear
11:35 AM 46.0 °F 44.8 °F 29.8 °F 53% 30.01 in 10.0 mi SW 3.5 mph - N/A   Clear
11:55 AM 46.4 °F - 28.8 °F 50% 29.99 in 10.0 mi Calm Calm - N/A   Clear
12:15 PM 46.8 °F - 28.4 °F 49% 30.01 in 10.0 mi West 3.5 mph - N/A   Clear
12:35 PM 47.7 °F - 26.6 °F 44% 30.03 in 10.0 mi SW 6.9 mph - N/A   Clear
12:55 PM 48.7 °F - 30.2 °F 49% 30.03 in 10.0 mi SW 4.6 mph - N/A   Clear
1:15 PM 48.9 °F - 28.9 °F 46% 30.02 in 10.0 mi SSW 5.8 mph - N/A   Clear
1:35 PM 49.3 °F - 29.5 °F 46% 30.02 in 10.0 mi SW 4.6 mph - N/A   Clear
1:55 PM 48.7 °F - 28.9 °F 46% 30.02 in 10.0 mi SW 3.5 mph - N/A   Clear
2:15 PM 48.4 °F - 29.1 °F 47% 30.02 in 10.0 mi WSW 3.5 mph - N/A   Clear
2:35 PM 48.4 °F - 28.6 °F 46% 30.02 in 10.0 mi SW 5.8 mph - N/A   Clear
2:55 PM 48.6 °F - 28.9 °F 47% 30.03 in 10.0 mi SW 3.5 mph - N/A   Clear
3:15 PM 48.4 °F - 29.1 °F 47% 30.03 in 10.0 mi Calm Calm - N/A   Clear
3:35 PM 48.4 °F - 29.1 °F 47% 30.02 in 10.0 mi Calm Calm - N/A   Clear
3:55 PM 48.2 °F - 29.5 °F 48% 30.01 in 10.0 mi Calm Calm - N/A   Clear
4:15 PM 45.9 °F 42.9 °F 29.3 °F 52% 30.00 in 10.0 mi ESE 5.8 mph - N/A   Clear
4:35 PM 45.0 °F 42.6 °F 29.3 °F 54% 30.01 in 10.0 mi ESE 4.6 mph - N/A   Clear
4:55 PM 44.8 °F 41.0 °F 29.5 °F 55% 29.98 in 10.0 mi East 6.9 mph - N/A   Clear
5:15 PM 42.4 °F 38.1 °F 29.7 °F 61% 29.99 in 10.0 mi East 6.9 mph - N/A   Clear
5:35 PM 41.7 °F 38.8 °F 30.0 °F 63% 30.00 in 10.0 mi ESE 4.6 mph - N/A   Clear
5:55 PM 40.1 °F 36.1 °F 29.7 °F 66% 29.99 in 10.0 mi East 5.8 mph - N/A   Clear
6:15 PM 40.8 °F 36.9 °F 29.3 °F 64% 29.98 in 10.0 mi ESE 5.8 mph - N/A   Clear
6:35 PM 40.6 °F 36.0 °F 29.3 °F 64% 29.98 in 10.0 mi East 6.9 mph - N/A   Clear
6:55 PM 40.1 °F 36.1 °F 28.4 °F 63% 29.98 in 10.0 mi ESE 5.8 mph - N/A   Clear
7:15 PM 39.2 °F 35.9 °F 28.0 °F 64% 29.99 in 10.0 mi SE 4.6 mph - N/A   Clear
7:35 PM 38.3 °F 34.8 °F 28.0 °F 67% 29.99 in 10.0 mi ESE 4.6 mph - N/A   Clear
7:55 PM 37.6 °F 33.1 °F 28.6 °F 70% 29.99 in 10.0 mi ESE 5.8 mph - N/A   Clear
8:15 PM 37.4 °F 32.8 °F 29.3 °F 73% 29.98 in 10.0 mi ESE 5.8 mph - N/A   Clear
8:35 PM 36.9 °F 32.2 °F 29.1 °F 74% 29.97 in 10.0 mi ESE 5.8 mph - N/A   Clear
8:55 PM 37.9 °F 34.4 °F 29.3 °F 71% 29.96 in 10.0 mi East 4.6 mph - N/A   Clear
9:15 PM 37.8 °F 31.3 °F 29.3 °F 72% 29.94 in 10.0 mi ENE 9.2 mph - N/A   Clear
9:35 PM 37.4 °F 32.1 °F 29.1 °F 72% 29.94 in 10.0 mi ESE 6.9 mph - N/A   Clear
9:55 PM 37.0 °F 33.3 °F 29.1 °F 73% 29.94 in 10.0 mi ESE 4.6 mph - N/A   Clear
10:35 PM 37.6 °F 32.3 °F 28.9 °F 71% 29.91 in 10.0 mi ESE 6.9 mph - N/A   Scattered Clouds
10:55 PM 37.8 °F 31.8 °F 29.1 °F 71% 29.89 in 10.0 mi ESE 8.1 mph - N/A   Scattered Clouds
11:15 PM 39.2 °F 35.0 °F 29.7 °F 69% 29.89 in 10.0 mi SE 5.8 mph - N/A   Clear
11:35 PM 39.6 °F 35.4 °F 29.7 °F 68% 29.89 in 10.0 mi ESE 5.8 mph - N/A   Mostly Cloudy
11:55 PM 40.1 °F 34.7 °F 29.8 °F 67% 29.88 in 10.0 mi ESE 8.1 mph - N/A   Overcast